Flag for China Weather past 2 weeks in Chongqing, Chongqing Municipality, China

Now
79 °F

Clear.


Feels Like: 79 °F
Forecast: 69 / 83 °F
Wind: 3 mph from Southeast

Location: Chongqing Airport

Current Time: Sep 23, 2014 at 12:53:14 AM

Latest Report: Sep 23, 2014 at 12:00 AM


Visibility: 10 mi

Pressure: 29.86 "Hg

Humidity: 42%

Dew point: 54 °F

Location of ChongqingLocation

Historic Weather in Chongqing — Graph

°F

Chongqing temperature yesterday

Maximum temperature yesterday: 86 °F (at 3:00 PM)
Minimum temperature yesterday: 68 °F (at 5:00 AM)
Average temperature yesterday: 79 °F

Past Weeks' High & Low Weather Summary

 TemperatureHumidityPressure
High93 °F (Sep 10, 2:00 PM)100% (Sep 19, 2:00 AM)30.04 "Hg (Sep 19, 2:00 AM)
Low66 °F (Sep 19, 2:00 AM)30% (Sep 22, 1:00 AM)29.56 "Hg (Sep 11, 3:00 PM)
Average77 °F78%29.80 "Hg
* Reported Midnight between Sep 7 and Sep 8 — Midnight between Sep 22 and Sep 23, Chongqing, Weather by CustomWeather, © 2014

Note: Actual official high and low records may vary slightly from our data, if they occured in-between our weather recording intervals... More about our weather records

Advertising

Chongqing weather history for previous 24 hours

 ConditionsComfort  
Time TempWeatherWind HumidityBarometerVisibility
12:00 AM
Sep 23
79 °FClear.3 mph42%29.86 "Hg10 mi
11:00 PM
Sep 22
81 °FPassing clouds.3 mph39%29.86 "HgN/A
10:00 PM79 °FPassing clouds.6 mph45%29.86 "HgN/A
9:00 PM79 °FClear.6 mph45%29.83 "Hg10 mi
8:00 PM79 °FClear.8 mph48%29.80 "Hg10 mi
7:00 PM81 °FClear.10 mph45%29.80 "Hg10 mi
6:00 PM82 °FSunny.10 mph37%29.77 "Hg10 mi
5:00 PM84 °FSunny.8 mph35%29.77 "Hg10 mi
4:00 PM84 °FSunny.8 mph31%29.80 "Hg10 mi
3:00 PM86 °FPassing clouds.6 mph33%29.80 "HgN/A
2:00 PM84 °FPassing clouds.6 mph37%29.83 "HgN/A
1:00 PM84 °FPassing clouds.8 mph33%29.86 "HgN/A
12:00 PM84 °FPassing clouds.6 mph33%29.89 "HgN/A
11:00 AM82 °FPassing clouds.6 mph35%29.92 "HgN/A
10:00 AM79 °FSunny.6 mph39%29.92 "Hg10 mi
9:00 AM79 °FSunny.8 mph42%29.92 "Hg10 mi
8:00 AM75 °FPassing clouds.3 mph50%29.89 "HgN/A
7:00 AM70 °FSunny.6 mph57%29.89 "Hg10 mi
6:00 AM72 °FClear.3 mph50%29.86 "Hg10 mi
5:00 AM68 °FClear.3 mph69%29.86 "Hg10 mi
4:00 AM73 °FClear.3 mph44%29.86 "Hg10 mi
3:00 AM75 °FClear.3 mph41%29.86 "Hg10 mi
2:00 AM79 °FClear.6 mph32%29.89 "Hg10 mi
1:00 AM79 °FClear.10 mph30%29.86 "Hg10 mi
12:00 AM79 °FClear.6 mph34%29.89 "Hg10 mi
Weather by CustomWeather, © 2014

See weather overviewHow to use our weather pages